{"data":{"norad_id":66370,"intl_designator":"2025-254Y","name":"STARLINK-35824","alt_names":[],"object_type":"PAYLOAD","status":"ACTIVE","operator":null,"country":"US","launch_date":"2025-11-06","launch_site_code":"AFWTR","launch_vehicle":null,"mission":null,"orbit_class":"UNKNOWN","rcs_meters":null,"size_class":null,"mass_kg":null,"dimensions":null,"purposes":["comms"],"wikipedia_slug":null,"has_3d_model":false,"image_url":null,"decayed_at":null,"tle_current":{"epoch":"2026-09-20T20:28:31.118880Z","epoch_age_seconds":62703,"freshness":"FRESH","line1":"1 66370U 25254Y   26263.85313795  .00014480  00000+0  43901-3 0  9996","line2":"2 66370  53.1605  41.8110 0000980  86.7661 273.3453 15.34388824 48915","mean_motion":15.34388824,"eccentricity":9.8e-5,"inclination_deg":53.1605,"raan_deg":41.811,"arg_perigee_deg":86.7661,"mean_anomaly_deg":273.3453,"bstar":0.00043901,"rev_number":4891,"period_min":93.848441638545,"perigee_km":462.06605223709,"apogee_km":463.40686343483,"semimajor_km":6840.873457836,"source":"CELESTRAK","updated_at":"2026-09-21T09:00:35.883706Z"}}}